K4FB Weather Reports


time (UTC)temp
F
wind
direction
speed
knots
gust
knots
rain 1hr
in
rain 24hr
in
rain mn
in
humidity
%
barometer
mb
20260503054518 70 237 0.0 3.5 0.02 0.14 0.05 94 1015.2
20260503053504 70 230 1.7 4.3 0.02 0.14 0.05 94 1015.5
20260503053019 70 236 0.9 3.5 0.02 0.14 0.05 94 1015.5
20260503052005 70 236 1.7 5.2 0.02 0.13 0.04 94 1015.6
20260503051524 70 229 2.6 5.2 0.02 0.13 0.04 94 1015.6
20260503051007 70 228 1.7 5.2 0.03 0.13 0.04 94 1015.6
20260503050504 70 225 1.7 3.5 0.03 0.13 0.04 94 1015.6
20260503050010 70 235 0.9 2.6 0.04 0.13 0.04 93 1015.6
20260503044525 70 239 1.7 4.3 0.03 0.12 0.03 94 1015.7
20260503044003 70 235 1.7 4.3 0.03 0.12 0.03 94 1015.6
20260503043021 70 244 0.9 5.2 0.03 0.12 0.03 94 1015.5
20260503042504 70 225 1.7 5.2 0.03 0.12 0.03 93 1015.6
20260503042008 70 217 2.6 5.2 0.02 0.11 0.02 93 1015.6
20260503041525 70 205 2.6 7.8 0.02 0.11 0.02 93 1015.6
20260503040504 70 238 2.6 5.2 0.01 0.10 0.01 92 1015.3
20260503040031 70 234 2.6 4.3 0.00 0.09 0.00 92 1015.2
20260503035505 70 229 1.7 4.3 0.00 0.09 0.09 92 1015.1
20260503034513 70 244 0.9 4.3 0.00 0.09 0.09 92 1014.6
20260503033015 70 226 2.6 4.3 0.00 0.09 0.09 92 1014.2
20260503032508 71 230 0.0 4.3 0.00 0.09 0.09 92 1014.1
20260503031512 71 223 1.7 5.2 0.00 0.09 0.09 91 1014.1
20260503031006 71 248 2.6 6.1 0.00 0.09 0.09 91 1014.1
20260503030027 71 208 2.6 7.0 0.00 0.09 0.09 91 1014.2
20260503025506 71 215 3.5 8.7 0.00 0.09 0.09 91 1014.3
20260503025007 71 185 3.5 8.7 0.00 0.09 0.09 91 1014.3
20260503023035 70 205 2.6 6.1 0.00 0.09 0.09 92 1014.1
20260503022009 70 236 2.6 5.2 0.00 0.09 0.09 92 1013.8
20260503021519 70 233 1.7 4.3 0.00 0.09 0.09 92 1013.6
20260503014515 70 236 1.7 7.0 0.00 0.09 0.09 91 1013.4
20260503014006 70 203 2.6 6.1 0.00 0.09 0.09 91 1013.5
20260503013510 70 237 3.5 6.1 0.00 0.09 0.09 92 1013.5
20260503013013 70 223 2.6 6.1 0.00 0.09 0.09 92 1013.2
20260503012007 70 213 1.7 7.0 0.00 0.09 0.09 92 1013.1
20260503011518 70 200 0.9 7.0 0.00 0.09 0.09 93 1013.2
20260503011007 70 190 3.5 7.0 0.00 0.09 0.09 93 1013.1
20260503010031 70 203 2.6 7.0 0.00 0.09 0.09 93 1013.0
20260503005012 70 205 2.6 7.0 0.00 0.09 0.09 93 1012.8
20260503003503 70 315 0.0 2.6 0.00 0.09 0.09 93 1011.6
20260503003022 70 315 0.0 4.3 0.00 0.09 0.09 93 1011.6
20260503002516 70 314 0.9 4.3 0.00 0.09 0.09 93 1011.8
20260503001518 71 254 0.0 4.3 0.01 0.09 0.09 93 1011.5
20260503001008 71 240 1.7 6.1 0.01 0.09 0.09 93 1012.0
20260503000024 71 213 2.6 7.8 0.02 0.09 0.09 93 1012.2
20260502234008 71 223 1.7 4.3 0.03 0.09 0.09 93 1011.8
20260502233509 71 201 1.7 4.3 0.04 0.09 0.09 93 1011.7
20260502233009 71 171 1.7 3.5 0.04 0.09 0.09 93 1011.3
20260502232007 71 217 0.0 7.0 0.03 0.08 0.08 92 1011.8
20260502231519 71 194 0.9 7.0 0.03 0.08 0.08 93 1011.6
20260502230022 71 200 1.7 3.5 0.02 0.07 0.07 93 1011.5
20260502225007 71 214 0.9 6.1 0.02 0.07 0.07 93 1011.9
20260502224522 71 213 0.9 5.2 0.01 0.06 0.06 92 1012.1
20260502224008 71 228 1.7 7.0 0.01 0.06 0.06 92 1012.2
20260502223505 71 198 4.3 7.0 0.00 0.05 0.05 92 1012.5
20260502223018 71 207 2.6 7.8 0.00 0.05 0.05 92 1012.4
20260502222510 71 205 3.5 9.6 0.00 0.05 0.05 92 1012.1
20260502222005 71 190 6.1 9.6 0.00 0.05 0.05 92 1012.0
20260502220013 71 180 0.9 7.8 0.00 0.05 0.05 92 1011.6
20260502214521 71 200 5.2 9.6 0.01 0.05 0.05 91 1012.4
20260502214004 71 205 2.6 5.2 0.02 0.05 0.05 92 1012.2
20260502213507 70 208 1.7 4.3 0.05 0.05 0.05 92 1011.8
20260502213029 70 217 0.9 6.1 0.05 0.05 0.05 91 1011.7
20260502212506 70 284 1.7 7.0 0.05 0.05 0.05 91 1011.8
20260502212005 70 263 2.6 7.8 0.05 0.05 0.05 91 1012.1
20260502211522 70 240 2.6 7.8 0.05 0.05 0.05 91 1012.1
20260502211009 70 225 3.5 9.6 0.05 0.05 0.05 91 1012.1
20260502205006 71 240 4.3 8.7 0.04 0.04 0.04 87 1012.1
20260502204524 71 261 2.6 8.7 0.04 0.04 0.04 86 1011.9
20260502204006 71 332 1.7 10.4 0.03 0.03 0.03 84 1011.7
20260502203018 72 275 6.1 14.8 0.00 0.00 0.00 81 1012.3
20260502202509 73 234 5.2 15.6 0.00 0.00 0.00 79 1012.3
20260502201525 74 279 4.3 15.6 0.00 0.00 0.00 76 1012.4
20260502201006 76 271 6.1 20.9 0.00 0.00 0.00 72 1012.6
20260502200510 77 331 8.7 20.9 0.00 0.00 0.00 65 1012.7
20260502200036 81 330 11.3 18.2 0.00 0.00 0.00 63 1012.7
20260502194518 82 182 5.2 11.3 0.00 0.00 0.00 71 1011.9
20260502192008 83 248 7.0 10.4 0.00 0.00 0.00 69 1011.8
20260502191524 83 255 6.1 10.4 0.00 0.00 0.00 70 1011.7
20260502190509 84 252 5.2 10.4 0.00 0.00 0.00 72 1012.0
20260502190018 84 246 3.5 10.4 0.00 0.00 0.00 72 1012.0
20260502185508 84 257 4.3 13.0 0.00 0.00 0.00 71 1012.1
20260502185011 84 228 7.0 13.0 0.00 0.00 0.00 70 1012.0
20260502184526 84 228 7.0 15.6 0.00 0.00 0.00 69 1011.9
20260502183020 85 253 5.2 13.9 0.00 0.00 0.00 68 1012.0
20260502180509 86 209 9.6 16.5 0.00 0.00 0.00 66 1012.1
20260502170509 87 241 12.2 21.7 0.00 0.00 0.00 63 1012.1
20260502163020 88 202 8.7 20.0 0.00 0.00 0.00 61 1012.0
20260502162509 87 190 10.4 20.0 0.00 0.00 0.00 64 1012.0
20260502161006 85 189 7.0 13.0 0.00 0.00 0.00 67 1012.4
20260502160507 85 226 6.1 12.2 0.00 0.00 0.00 68 1012.3
20260502130503 74 213 5.2 11.3 0.00 0.00 0.00 87 1011.7
20260502123004 71 207 1.7 7.8 0.00 0.00 0.00 96 1011.6
20260502122003 70 160 4.3 8.7 0.00 0.00 0.00 96 1011.5
20260502121503 70 161 3.5 7.0 0.00 0.00 0.00 96 1011.3
20260502121005 70 206 3.5 7.8 0.00 0.00 0.00 96 1011.3
20260502120504 70 197 5.2 7.8 0.00 0.00 0.00 96 1011.4
20260502115504 69 181 5.2 8.7 0.00 0.00 0.00 96 1011.6
20260502115003 69 189 4.3 7.8 0.00 0.00 0.00 96 1011.5
20260502114508 69 184 2.6 7.8 0.00 0.00 0.00 96 1011.5
20260502114003 69 180 2.6 6.1 0.00 0.00 0.00 96 1011.6
20260502113503 69 180 1.7 4.3 0.00 0.00 0.00 96 1011.6
20260502113006 69 192 0.9 3.5 0.00 0.00 0.00 96 1011.6
20260502111508 69 188 0.9 2.6 0.00 0.00 0.00 96 1011.4
20260502111003 68 189 0.9 2.6 0.00 0.00 0.00 96 1011.5
20260502110503 68 187 0.0 2.6 0.00 0.00 0.00 96 1011.4
20260502105504 68 183 0.9 2.6 0.00 0.00 0.00 96 1011.3
20260502105003 68 182 0.0 1.7 0.00 0.00 0.00 96 1011.3
20260502104513 68 182 0.0 1.7 0.00 0.00 0.00 96 1011.2
20260502104003 68 182 0.0 1.7 0.00 0.00 0.00 96 1011.2
20260502103503 68 182 0.0 2.6 0.00 0.00 0.00 96 1011.0
20260502103011 67 182 0.0 2.6 0.00 0.00 0.00 96 1010.8
20260502102503 67 182 0.9 2.6 0.00 0.00 0.00 96 1010.7
20260502102003 67 181 0.0 2.6 0.00 0.00 0.00 96 1010.7
20260502101508 67 190 0.0 2.6 0.00 0.00 0.00 96 1010.9
20260502101002 66 181 0.9 2.6 0.00 0.00 0.00 95 1010.9
20260502100502 66 176 0.0 2.6 0.00 0.00 0.00 95 1011.0
20260502091508 66 231 0.0 0.0 0.00 0.00 0.00 95 1011.7
20260502091003 66 231 0.0 0.0 0.00 0.00 0.00 94 1011.7
20260502090502 66 231 0.0 0.0 0.00 0.00 0.00 94 1011.6
20260502071517 67 231 0.0 0.0 0.00 0.00 0.00 93 1012.0
20260502071004 68 231 0.0 0.0 0.00 0.00 0.00 93 1012.0
20260502070017 68 231 0.0 0.0 0.00 0.00 0.00 93 1012.1
20260502065507 68 231 0.0 0.0 0.00 0.00 0.00 93 1012.1
20260502065011 68 231 0.0 0.0 0.00 0.00 0.00 94 1012.2
20260502064517 68 231 0.0 0.0 0.00 0.00 0.00 93 1012.2
20260502064007 68 231 0.0 0.0 0.00 0.00 0.00 93 1012.2
20260502063504 68 231 0.0 0.0 0.00 0.00 0.00 93 1012.3
20260502063018 68 231 0.0 0.0 0.00 0.00 0.00 93 1012.3
20260502062509 68 231 0.0 0.0 0.00 0.00 0.00 93 1012.3
20260502062006 68 231 0.0 0.0 0.00 0.00 0.00 93 1012.3
20260502061515 68 231 0.0 0.0 0.00 0.00 0.00 93 1012.5
20260502061004 68 231 0.0 0.0 0.00 0.00 0.00 93 1012.6
20260502060507 68 231 0.0 0.0 0.00 0.00 0.00 92 1012.5
20260502060012 68 231 0.0 0.0 0.00 0.00 0.00 92 1012.6